This is the latest recevied weather packets stored in our database for station/object KA0WKG. If no packets are shown the sender has not sent any weather packets the latest 10 day(s).
| Time | Temp. | Humidity | Pressure | Rain* | Wind** | Luminosity | Snow |
|---|---|---|---|---|---|---|---|
| 1777391105 | 3.89° C | 97% | 1018.4 hPa | 0.51 mm | - | - | - |
| 1777390207 | 3.33° C | 97% | 1018.3 hPa | 0.51 mm | - | - | - |
| 1777386306 | 2.78° C | 97% | 1018.1 hPa | 0.25 mm | - | - | - |
| 1777386005 | 2.78° C | 97% | 1018.3 hPa | 0.25 mm | - | - | - |
| 1777385406 | 2.22° C | 97% | 1018.2 hPa | 0 mm | - | - | - |
| 1777384507 | 2.78° C | 97% | 1018.3 hPa | 0 mm | - | - | - |
| 1777382105 | 2.22° C | 97% | 1017.5 hPa | 0 mm | - | - | - |
| 1777380005 | 2.22° C | 97% | 1017.1 hPa | 0 mm | - | - | - |
| 1777375805 | 2.22° C | 97% | 1016.2 hPa | 0.76 mm | - | - | - |
| 1777372805 | 2.22° C | 97% | 1016.5 hPa | 0.25 mm | - | - | - |
| 1777371004 | 1.67° C | 97% | 1016.7 hPa | 1.02 mm | - | - | - |
| 1777368604 | 1.67° C | 97% | 1015.9 hPa | 0.51 mm | - | - | - |
| 1777367406 | 1.67° C | 97% | 1016.3 hPa | 0.25 mm | - | - | - |
| 1777366205 | 1.67° C | 97% | 1016.9 hPa | 0.51 mm | - | - | - |
| 1777364105 | 1.67° C | 97% | 1016.9 hPa | 0.76 mm | - | - | - |
| 1777363203 | 1.67° C | 97% | 1017 hPa | 0.51 mm | - | - | - |
| 1777361409 | 2.22° C | 94% | 1017.2 hPa | 0.51 mm | - | - | - |
| 1777353608 | 3.89° C | 82% | 1017.6 hPa | 0 mm | - | - | - |
| 1777353008 | 3.89° C | 82% | 1017 hPa | 0 mm | - | - | - |
| 1777352709 | 3.89° C | 82% | 1017.3 hPa | 0 mm | - | - | - |
| 1777350008 | 4.44° C | 81% | 1017.3 hPa | 0 mm | - | - | - |
| 1777348508 | 5° C | 80% | 1017.1 hPa | 0 mm | - | - | - |
| 1777343108 | 6.67° C | 71% | 1016.4 hPa | 0 mm | - | - | - |
| 1777338008 | 8.33° C | 62% | 1014.6 hPa | 0 mm | - | - | - |
| 1777337407 | 8.89° C | 61% | 1014.4 hPa | 0 mm | - | - | - |
* Rain latest hour (hover to see other rain measurements)
** Current wind speed in m/s (hover to see current wind gust speed)